CZ-6A DEB

Satellite information

Favourite Embed

Satellite Type and Status

DEBRISIN ORBIT

Key statistics

Satellite CZ-6A DEB at a glance.

Uptime

1129

Days in orbit

Revolutions

≈ 14.6

Per day

Orbit

SSO

Sun Synchronous Orbit

Inclination

98.7

Latest

Satellite identification and parameters

Extended collection of information and parameters for CZ-6A DEB.

Object identification

Identified? True

Debris? True

Object name: CZ-6A DEB

International designator: 2022-151WS

Object number (NORAD): 55225

Object ID (CCSDS): 55225

Country: PEOPLES REPUBLIC OF CHINA (PRC)

Current information (Y/N): Y

RCS size: SMALL

Orbital parameters

Period: 98.925 minutes

Inclination: 98.7476 deg

SMA: 7085.39 km

Apoapsis: 799.794 km

Periapsis: 614.716 km

RAAN: 40.6246 deg

Eccentricy: 0.01306057

Argument of periapsis: 216.5207 deg

Mean anomaly: 142.703 deg

Mean motion: 14.5565049 rev/day

Mean motion (dot): 0.00017682 rev/day2

B* drag term: 0.0036116188 1/REarth

Two-line elements (TLE)

Creation date: Dec. 13, 2025, 5:47 p.m.

Reference frame: TEME

Reference center: EARTH

Epoch: Dec. 13, 2025, 2:47 a.m. UTC

TLE line 0: 0 CZ-6A DEB

TLE line 1: 1 55225U 22151WS 25347.11635316 .00017682 00000-0 36116-2 0 9990

TLE line 2: 2 55225 98.7476 40.6246 0130606 216.5207 142.7030 14.55650490156742

Live tracking on map

Real-time ground track for satellite CZ-6A DEB.

In-orbit conjunctions

A list of the most updated potential collisions computed for object CZ-6A DEB.

Target Orbit TCA Probability of collision Miss distance Type
COSMOS 1814 LEO 2024-12-08 13:19:55 0.0001126926 794.0 (m) PAYLOAD
METEOR 1-5 LEO 2024-10-16 15:10:26 0.0001092784 306.0 (m) PAYLOAD

Associated space launch

Chinese satellite reported for atmospheric/ocean/environmental/spatial parameter research purposes, details TBD.

CZ-6A DEB was lifted into orbit during the mission ‘Long March 6A | Yunhai 3’, on board a Long March 6A space rocket.

The launch took place on Nov. 11, 2022, 10:52 p.m. from Launch Complex 9A.

For more information about the launch, click the button.

Launch to space Long March 6A | Yunhai 3
Long March 6A | Yunhai 3

Agency: N/A

Status: Launch Successful

Launch date: Nov. 11, 2022, 10:52 p.m. UTC

Rocket: Long March 6A

Launch pad: Launch Complex 9A

Location: Taiyuan Satellite Launch Center, People's Republic of China

...

Latest news about this satellite

There are no fresh news available about this satellite. Check back as we update our databases every day.


Newsletter sign-up

Weekly statistics, charts and insights to help you stay on top of the space industry.